Погода в Ершовке

Россия / Удмуртская Республика     56°27′22″N   53°52′42″E
темп.,
°C
ветер,
м/с
пор.,
м/с
влажн.,
%
обл.,
%
осадки,
мм/ч
давл.,
гПа
погр.,
м
23 апреля, пт
пт2301:00+4ю489157 0.0 1028448
04:00+3ю389571 0.0 1028356
07:00+4ю3690100 0.0 1029433
10:00+5ю3587100 0.0 1029486
13:00+9ююв346835 0.0 1028779
16:00+11вюв3460100 0.0 10271080
19:00+9вюв3669100 0.0 1026403
22:00+6в3885100 0.0 1025194
24 апреля, сб
сб2401:00+6в3784100 0.0 1023291
04:00+6вюв3793100 0.2 1021321
07:00+6в3794100 0.6 1020331
10:00+7в3792100 1.0 1018480
13:00+7вюв3793100 0.6 1016894
16:00+7вюв3692100 1.4 10151012
19:00+6юв4794100 1.0 1014880
22:00+6юв3895100 1.6 1013472
25 апреля, вс
вс2501:00+5юв3795100 0.1 1012804
04:00+5юв3895100 0.1 1010442
07:00+6юв41092100 0.0 1008531
10:00+6юв51293100 3.0 10061231
13:00+5юз5119395 2.3 1007900
16:00+9юз71160100 3.3 10091809
19:00+7юз41059100 0.4 1009566
22:00+5зюз51179100 0.8 1011774
26 апреля, пн
пн2601:00+3юз4129079 0.0 1013471
04:00+4юз5128272 0.1 1014670
07:00+4юз411805 0.0 1016591
10:00+8юз51154100 0.0 10171495
13:00+9юз6124996 0.1 10162277
16:00+11зюз61247100 0.3 10152086
19:00+9зюз395780 0.1 1015433
22:00+5ю1172100 0.1 101410
27 апреля, вт
вт2701:00+4св1180100 0.0 101317
04:00+4в2480100 0.0 101172
07:00+6в2373100 0.0 1009159
10:00+10в1149100 0.0 1008801
13:00+13сз114099 0.0 10061935
16:00+12св114791 0.3 10061341
19:00+10юв2357100 0.3 100577
22:00+8ююв4126561 0.6 1004461